When you browse on this site, cookies collect data to enhance your experience and personalize the content and advertising you see.
Visit our Privacy Policy to learn more. By continuing to use the site, you agree to this use of cookies and data.
  • In Romania
  • List of Countries
  • For 7 days
  • Water Temperature
  • Satellite Maps
  • Weather Map
  • Weather Widgets
  • user-avatar
    Login

    Hourly Weather Aylesbury

    Today, 22 January, Tuesday

    Time Temperature Precipitation Wind Pressure Humidity
    00:00 +3°C° 0 mm 6 mps 747 mmHg 91%
    01:00 +3°C° 1.4 mm 6 mps 746 mmHg 91%
    02:00 +2°C° 1.4 mm 6 mps 745 mmHg 91%
    03:00 +2°C° 1.4 mm 6 mps 744 mmHg 90%
    04:00 +1°C° 0 mm 5 mps 744 mmHg 90%
    05:00 0°C° 0 mm 4 mps 744 mmHg 90%
    06:00 -1°C° 0 mm 4 mps 744 mmHg 90%
    07:00 -1°C° 0 mm 4 mps 744 mmHg 90%
    08:00 -1°C° 0 mm 4 mps 744 mmHg 90%
    09:00 -2°C° 0 mm 4 mps 744 mmHg 89%
    10:00 0°C° 0 mm 4 mps 743 mmHg 84%
    11:00 +1°C° 0 mm 4 mps 743 mmHg 80%
    12:00 +3°C° 0 mm 4 mps 743 mmHg 75%
    13:00 +3°C° 0.2 mm 3 mps 742 mmHg 77%
    14:00 +3°C° 0.2 mm 3 mps 742 mmHg 79%
    15:00 +3°C° 0.2 mm 3 mps 742 mmHg 81%
    16:00 +2°C° 0.2 mm 3 mps 741 mmHg 83%
    17:00 +2°C° 0.2 mm 2 mps 741 mmHg 85%
    18:00 +2°C° 0.2 mm 2 mps 741 mmHg 87%
    19:00 0°C° 0 mm 3 mps 740 mmHg 88%
    20:00 0°C° 0 mm 3 mps 740 mmHg 90%
    21:00 -1°C° 0 mm 3 mps 740 mmHg 91%
    22:00 -1°C° 0 mm 3 mps 740 mmHg 91%
    23:00 -2°C° 0 mm 3 mps 740 mmHg 92%

    Tomorrow, 23 January, Wednesday

    Time Temperature Precipitation Wind Pressure Humidity
    00:00 -2°C° 0 mm 3 mps 740 mmHg 92%
    01:00 -2°C° 0 mm 3 mps 740 mmHg 92%
    02:00 -2°C° 0 mm 3 mps 740 mmHg 92%
    03:00 -4°C° 0 mm 3 mps 740 mmHg 92%
    04:00 -4°C° 0 mm 3 mps 740 mmHg 92%
    05:00 -4°C° 0 mm 4 mps 741 mmHg 92%
    06:00 -4°C° 0 mm 4 mps 741 mmHg 91%
    07:00 -3°C° 0 mm 4 mps 742 mmHg 90%
    08:00 -3°C° 0 mm 4 mps 742 mmHg 88%
    09:00 -3°C° 0 mm 4 mps 743 mmHg 87%
    10:00 -2°C° 0 mm 4 mps 743 mmHg 81%
    11:00 -1°C° 0 mm 4 mps 744 mmHg 76%
    12:00 0°C° 0 mm 5 mps 745 mmHg 70%
    13:00 0°C° 0 mm 5 mps 745 mmHg 72%
    14:00 0°C° 0 mm 4 mps 745 mmHg 74%
    15:00 0°C° 0 mm 4 mps 746 mmHg 76%
    16:00 -1°C° 0 mm 4 mps 746 mmHg 80%
    17:00 -1°C° 0 mm 3 mps 747 mmHg 84%
    18:00 -2°C° 0 mm 3 mps 748 mmHg 88%
    19:00 -2°C° 0 mm 3 mps 748 mmHg 88%
    20:00 -2°C° 0 mm 3 mps 749 mmHg 89%
    21:00 -2°C° 0 mm 2 mps 749 mmHg 89%
    22:00 -2°C° 0 mm 2 mps 750 mmHg 88%
    23:00 -2°C° 0 mm 2 mps 750 mmHg 88%

    Day after tomorrow, 24 January, Thursday

    Time Temperature Precipitation Wind Pressure Humidity
    00:00 -2°C° 0 mm 2 mps 750 mmHg 88%
    01:00 -2°C° 0 mm 2 mps 751 mmHg 86%
    02:00 -2°C° 0 mm 2 mps 751 mmHg 85%
    03:00 -2°C° 0 mm 2 mps 752 mmHg 84%
    04:00 -2°C° 0 mm 2 mps 752 mmHg 82%
    05:00 -1°C° 0 mm 1 mps 752 mmHg 80%
    06:00 -1°C° 0 mm 1 mps 752 mmHg 79%
    07:00 0°C° 0 mm 1 mps 753 mmHg 78%
    08:00 0°C° 0 mm 1 mps 753 mmHg 76%
    09:00 0°C° 0 mm 1 mps 753 mmHg 75%
    10:00 +2°C° 0 mm 1 mps 754 mmHg 73%
    11:00 +2°C° 0 mm 2 mps 754 mmHg 71%
    12:00 +3°C° 0 mm 2 mps 754 mmHg 69%
    13:00 +4°C° 0 mm 2 mps 754 mmHg 72%
    14:00 +4°C° 0 mm 2 mps 754 mmHg 75%
    15:00 +4°C° 0 mm 2 mps 754 mmHg 78%
    16:00 +3°C° 0 mm 2 mps 754 mmHg 81%
    17:00 +2°C° 0 mm 3 mps 754 mmHg 84%
    18:00 +1°C° 0 mm 3 mps 754 mmHg 87%
    19:00 +2°C° 0.5 mm 3 mps 754 mmHg 89%
    20:00 +2°C° 0.5 mm 3 mps 754 mmHg 91%
    21:00 +2°C° 0.5 mm 3 mps 753 mmHg 94%
    22:00 +2°C° 0.3 mm 3 mps 753 mmHg 95%
    23:00 +3°C° 0.3 mm 3 mps 753 mmHg 96%

    25 January, Friday

    Time Temperature Precipitation Wind Pressure Humidity
    00:00 +4°C° 0.3 mm 2 mps 753 mmHg 98%
    01:00 +3°C° 0.1 mm 3 mps 753 mmHg 98%
    02:00 +4°C° 0.1 mm 3 mps 753 mmHg 98%
    03:00 +4°C° 0.1 mm 3 mps 753 mmHg 98%
    04:00 +4°C° 0.1 mm 3 mps 752 mmHg 97%
    05:00 +4°C° 0.1 mm 3 mps 752 mmHg 97%
    06:00 +4°C° 0.1 mm 3 mps 752 mmHg 97%
    07:00 +4°C° 0 mm 3 mps 752 mmHg 97%
    08:00 +4°C° 0 mm 3 mps 753 mmHg 97%
    09:00 +4°C° 0 mm 3 mps 753 mmHg 97%
    10:00 +5°C° 0 mm 3 mps 753 mmHg 94%
    11:00 +6°C° 0 mm 4 mps 753 mmHg 92%
    12:00 +7°C° 0 mm 4 mps 753 mmHg 90%
    13:00 +7°C° 0 mm 4 mps 752 mmHg 90%
    14:00 +7°C° 0 mm 4 mps 752 mmHg 90%
    15:00 +8°C° 0 mm 3 mps 751 mmHg 90%
    16:00 +7°C° 0 mm 3 mps 751 mmHg 90%
    17:00 +5°C° 0 mm 4 mps 750 mmHg 91%
    18:00 +4°C° 0 mm 4 mps 750 mmHg 92%
    19:00 +5°C° 0 mm 4 mps 749 mmHg 93%
    20:00 +5°C° 0 mm 5 mps 748 mmHg 94%
    21:00 +6°C° 0 mm 5 mps 748 mmHg 95%
    22:00 +5°C° 1.1 mm 6 mps 747 mmHg 95%
    23:00 +7°C° 1.1 mm 6 mps 746 mmHg 95%

    26 January, Saturday

    Time Temperature Precipitation Wind Pressure Humidity
    00:00 +7°C° 1.1 mm 6 mps 745 mmHg 95%
    01:00 +7°C° 1.7 mm 6 mps 745 mmHg 95%
    02:00 +5°C° 1.7 mm 6 mps 744 mmHg 96%
    03:00 +6°C° 1.7 mm 5 mps 743 mmHg 96%
    04:00 +5°C° 0.7 mm 5 mps 743 mmHg 93%
    05:00 +3°C° 0.7 mm 5 mps 743 mmHg 91%
    06:00 +2°C° 0.7 mm 5 mps 742 mmHg 88%
    07:00 +2°C° 0.1 mm 5 mps 742 mmHg 87%
    08:00 +2°C° 0.1 mm 5 mps 743 mmHg 86%
    09:00 +2°C° 0.1 mm 5 mps 743 mmHg 85%
    10:00 +2°C° 0 mm 6 mps 743 mmHg 83%
    11:00 +2°C° 0 mm 6 mps 744 mmHg 80%
    12:00 +3°C° 0 mm 6 mps 744 mmHg 78%
    13:00 +3°C° 0 mm 6 mps 744 mmHg 78%
    14:00 +3°C° 0 mm 5 mps 744 mmHg 78%
    15:00 +3°C° 0 mm 5 mps 744 mmHg 78%
    16:00 +2°C° 0 mm 5 mps 745 mmHg 79%
    17:00 +1°C° 0 mm 5 mps 745 mmHg 80%
    18:00 +1°C° 0 mm 5 mps 746 mmHg 81%
    19:00 +1°C° 0 mm 5 mps 746 mmHg 82%
    20:00 0°C° 0 mm 5 mps 746 mmHg 84%
    21:00 0°C° 0 mm 5 mps 747 mmHg 86%
    22:00 0°C° 0 mm 5 mps 747 mmHg 86%
    23:00 0°C° 0 mm 5 mps 747 mmHg 86%

    27 January, Sunday

    Time Temperature Precipitation Wind Pressure Humidity
    00:00 -1°C° 0 mm 5 mps 748 mmHg 86%
    01:00 -1°C° 0 mm 5 mps 748 mmHg 85%
    02:00 -1°C° 0 mm 5 mps 748 mmHg 85%
    03:00 -2°C° 0 mm 4 mps 748 mmHg 85%
    04:00 -2°C° 0 mm 4 mps 748 mmHg 85%
    05:00 -2°C° 0 mm 4 mps 749 mmHg 86%
    06:00 -3°C° 0 mm 4 mps 749 mmHg 86%
    07:00 -2°C° 0 mm 3 mps 749 mmHg 85%
    08:00 -1°C° 0 mm 3 mps 749 mmHg 84%
    09:00 -1°C° 0 mm 3 mps 749 mmHg 83%
    10:00 0°C° 0 mm 3 mps 750 mmHg 77%
    11:00 +2°C° 0 mm 3 mps 750 mmHg 71%
    12:00 +3°C° 0 mm 3 mps 750 mmHg 66%
    13:00 +3°C° 0 mm 3 mps 749 mmHg 68%
    14:00 +3°C° 0 mm 3 mps 749 mmHg 70%
    15:00 +4°C° 0 mm 2 mps 749 mmHg 72%
    16:00 +3°C° 0 mm 2 mps 749 mmHg 77%
    17:00 +2°C° 0 mm 2 mps 749 mmHg 83%
    18:00 +1°C° 0 mm 2 mps 749 mmHg 88%
    19:00 +1°C° 0 mm 2 mps 749 mmHg 88%
    20:00 +1°C° 0 mm 2 mps 749 mmHg 89%
    21:00 +1°C° 0 mm 2 mps 749 mmHg 89%
    22:00 +2°C° 0 mm 1 mps 749 mmHg 90%
    23:00 +1°C° 0 mm 1 mps 749 mmHg 90%
    Show more